Flag for Ireland

Past Weather in Dundalk, Ireland — Yesterday and Last 2 Weeks

Now
45 °F

Quite cool.


Feels Like: 40 °F
Forecast: 52 / 44 °F
Wind: 9 mph from Northwest

Location: Glenanne
Current Time: Sep 23, 2020 at 5:40:13 am
Latest Report: Sep 23, 2020 at 5:00 am
Visibility: 28 mi
Pressure29.59 "Hg
Humidity: 96%
Dew Point: 44 °F
Location of DundalkLocation

Past Weather in Dundalk — Graph

°F

Dundalk Temperature Yesterday

Maximum temperature yesterday: 60 °F (at 3:00 pm)
Minimum temperature yesterday: 50 °F (at 11:00 pm)
Average temperature yesterday: 54 °F

High & Low Weather Summary for the Past Weeks

 TemperatureHumidityPressure
High72 °F (Sep 15, 5:00 pm)100% (Sep 8, 6:00 am)30.42 "Hg (Sep 8, 6:00 am)
Low46 °F (Sep 19, 6:00 am)62% (Sep 13, 4:00 pm)29.50 "Hg (Sep 22, 5:00 pm)
Average56 °F86%30.08 "Hg
* Reported Sep 8 4:00 am — Sep 23 4:00 am, Dundalk. Weather by CustomWeather, © 2020

Note: Actual official high and low records may vary slightly from our data, if they occured in-between our weather recording intervals... More about our weather records

Dundalk Weather History for the Previous 24 Hours

Scroll right to see more
 ConditionsComfort  
Time TempWeatherWind HumidityBarometerVisibility
4:00 am
Wed, Sep 23
46 °FCool.9 mph94%29.58 "Hg31 mi
3:00 am47 °FCool.8 mph93%29.58 "Hg25 mi
2:00 am48 °FCool.9 mph94%29.57 "Hg28 mi
1:00 am49 °FCool.10 mph94%29.57 "Hg31 mi
12:00 am49 °FCool.10 mph95%29.56 "Hg31 mi
11:00 pm
Tue, Sep 22
50 °FCool.7 mph94%29.56 "Hg31 mi
10:00 pm52 °FCool.9 mph92%29.54 "Hg31 mi
9:00 pm53 °FCool.7 mph92%29.53 "Hg31 mi
8:00 pm54 °FRain showers. Overcast.8 mph91%29.50 "Hg28 mi
7:00 pm55 °FCool.7 mph96%29.50 "Hg19 mi
6:00 pm56 °FDrizzle. Cloudy.13 mph94%29.50 "Hg4 mi
5:00 pm58 °FLight rain. Cloudy.14 mph83%29.50 "Hg5 mi
4:00 pm59 °FCool.13 mph78%29.53 "Hg22 mi
3:00 pm60 °FCool.16 mph73%29.55 "Hg25 mi
2:00 pm58 °FCool.13 mph77%29.58 "Hg25 mi
1:00 pm58 °FCool.16 mph75%29.59 "Hg19 mi
12:00 pm56 °FCool.17 mph76%29.61 "Hg25 mi
11:00 am55 °FCool.17 mph77%29.64 "Hg16 mi
10:00 am54 °FCool.17 mph81%29.66 "Hg28 mi
9:00 am53 °FCool.16 mph85%29.67 "Hg31 mi
8:00 am51 °FFog.14 mph96%29.70 "Hg6 mi
7:00 am52 °FCool.14 mph94%29.72 "Hg11 mi
6:00 am52 °FCool.12 mph91%29.74 "Hg11 mi
5:00 am53 °FCool.13 mph90%29.77 "Hg17 mi
Weather by CustomWeather, © 2020

See weather overview